Hourly Data Report for October 09, 2015

All times are specified in Local Standard Time (LST). Add 1 hour to adjust for Daylight Saving Time where and when it is observed.

EUREKA CLIMATE
NUNAVUT

79°59'21.000" N
85°56'02.000" W
10.00 m
2401199
71613
NEK

Download Data

Hourly Data (October 2015)
Hourly Data Report for October 9, 2015
Temp Definition
°C
Dew Point Temp Definition
°C
Rel Hum Definition
%
Wind Dir Definition
10's deg

Wind Spd Definition
km/h
Visibility Definition
km
Stn Press Definition
kPa
Hmdx Definition


Wind Chill Definition


Weather Definition


TIME
00:00 -7.8 -9.1 90 15 11   100.95   -13 LegendNANA
01:00 -9.9 -11.0 92 18 12   100.99   -16 LegendNANA
02:00 -9.3 -10.2 93 32 3   101.05   -11 LegendNANA
03:00 -9.4 -10.2 94 30 9   101.09   -14 LegendNANA
04:00 -9.6 -10.3 95 33 5   101.12   -12 LegendNANA
05:00 -10.4 -11.9 89 15 5   101.15   -13 LegendNANA
06:00 -9.5 -10.3 94 29 8   101.15   -14 LegendNANA
07:00 -11.4 -12.4 92 31 10   101.14   -17 LegendNANA
08:00 -13.2 -14.2 92 31 6   101.15   -17 LegendNANA
09:00 -15.0 -16.4 89 1 12   101.14   -22 LegendNANA
10:00 -14.9 -17.2 83 6 3   101.16   -17 LegendNANA
11:00 -12.8 -13.8 92 35 8   101.16   -18 LegendNANA
12:00 -12.5 -13.9 90 34 7   101.16   -17 LegendNANA
13:00 -11.3 -12.5 91 31 12   101.15   -17 LegendNANA
14:00 -11.2 -12.3 92 30 16   101.14   -18 LegendNANA
15:00 -11.9 -13.0 92 32 10   101.14   -18 LegendNANA
16:00 -15.1 -16.4 89 12 6   101.13   -19 LegendNANA
17:00 -15.2 -16.3 91 11 4   101.10   -18 LegendNANA
18:00 -15.8 -16.8 92 8 4   101.12   -19 LegendNANA
19:00 -14.3 -15.7 89 2 12   101.10   -21 LegendNANA
20:00 -13.4 -14.5 91 2 10   101.10   -19 LegendNANA
21:00 -15.1 -16.3 91 11 9   101.11   -21 LegendNANA
22:00 -15.0 -15.9 93 10 11   101.11   -22 LegendNANA
23:00 -14.4 -15.2 94 11 9   101.14   -20 LegendNANA

Notes on Data Quality.

Legend

  • E = Estimated
  • M = Missing
  • NA = Not Available
  • ‡ = Partner data that is not subject to review by the National Climate Archives
Date modified: